Kenai, AK

7:07 AM AKST on December 10, 2019 (GMT -0900)
Kenai Municipal

Weather History for PAEN - October, 2019

Change the Weather History Date:

Wednesday, October 30, 2019

  Actual Average Record
Temperature  
Mean Temperature 42 °F -  
Max Temperature 48 °F 34 °F 48 °F (1979)
Min Temperature 37 °F 21 °F -6 °F (1982)
Degree Days  
Heating Degree Days 22    
Moisture  
Dew Point 37 °F    
Average Humidity 84    
Maximum Humidity 93    
Minimum Humidity 68    
Precipitation  
Precipitation 0.00 in - - ()
Sea Level Pressure  
Sea Level Pressure 30.01 in    
Wind  
Wind Speed 10 mph (SSE)    
Max Wind Speed 23 mph    
Max Gust Speed 30 mph    
Visibility 10 miles    
Events      
Averages and records for this station are not official NWS values.
T = Trace of Precipitation, MM = Missing Value Source: NWS Daily Summary

Daily Weather History Graph

Daily Weather History Graph

Search for Another Location

Airport or City:

Astronomy

Oct. 30, 2019 Rise Set
Actual Time 9:24 AM AKDT 6:11 PM AKDT
Civil Twilight 8:38 AM AKDT 6:57 PM AKDT
Nautical Twilight 7:48 AM AKDT 7:47 PM AKDT
Astronomical Twilight 6:59 AM AKDT 8:36 PM AKDT
Moon 1:02 PM AKDT (10/30) 7:41 PM AKDT (10/30)
Length of Visible Light 10h 18m
Length of Day
8h 47m
Waxing Crescent, 9% of the Moon is Illuminated
Oct 30
Waxing Crescent
Nov 4
First Quarter
Nov 12
Full
Nov 19
Last Quarter
Nov 26
New

Hourly Weather History & Observations

Time (AKDT) Temp. Windchill Dew Point Humidity Pressure Visibility Wind Dir Wind Speed Gust Speed Precip Events Conditions
12:53 AM 43.0 °F 38.8 °F 39.9 °F 89% 29.91 in 10.0 mi SE 6.9 mph - 0.00 in   Overcast
1:41 AM 42.1 °F 37.7 °F 39.0 °F 89% 29.91 in 10.0 mi SSE 6.9 mph - N/A   Mostly Cloudy
1:53 AM 41.0 °F 36.4 °F 37.9 °F 89% 29.92 in 10.0 mi SSE 6.9 mph - N/A   Scattered Clouds
3:53 AM 39.9 °F 35.1 °F 37.0 °F 89% 29.94 in 10.0 mi South 6.9 mph - N/A   Mostly Cloudy
4:23 AM 39.0 °F 33.4 °F 36.0 °F 89% 29.93 in 10.0 mi SSE 8.1 mph - N/A   Partly Cloudy
4:53 AM 37.9 °F 33.5 °F 36.0 °F 93% 29.94 in 10.0 mi SSE 5.8 mph - N/A   Clear
5:27 AM 37.4 °F 32.1 °F 35.6 °F 93% 29.94 in 10.0 mi SSE 6.9 mph - N/A   Mostly Cloudy
5:53 AM 39.0 °F 34.0 °F 36.0 °F 89% 29.95 in 10.0 mi SE 6.9 mph - N/A   Scattered Clouds
6:53 AM 37.9 °F 32.7 °F 36.0 °F 93% 29.96 in 10.0 mi SSE 6.9 mph - N/A   Clear
7:53 AM 39.0 °F 32.8 °F 36.0 °F 89% 29.96 in 10.0 mi SSE 9.2 mph - N/A   Clear
8:53 AM 39.9 °F 32.5 °F 36.0 °F 86% 29.98 in 10.0 mi South 12.7 mph - N/A   Clear
9:53 AM 41.0 °F 33.5 °F 36.0 °F 82% 29.99 in 10.0 mi South 13.8 mph - N/A   Clear
10:53 AM 42.1 °F 35.2 °F 37.0 °F 82% 30.00 in 10.0 mi SSE 12.7 mph - N/A   Scattered Clouds
12:53 PM 46.9 °F - 39.0 °F 74% 30.03 in 10.0 mi South 15.0 mph - N/A   Partly Cloudy
1:53 PM 46.9 °F - 39.0 °F 74% 30.04 in 10.0 mi SSW 19.6 mph 27.6 mph N/A   Clear
2:53 PM 48.0 °F - 39.0 °F 71% 30.05 in 10.0 mi SSW 21.9 mph - N/A   Clear
3:53 PM 48.0 °F - 39.0 °F 71% 30.05 in 10.0 mi SSW 20.7 mph - N/A   Clear
4:53 PM 46.9 °F - 37.0 °F 68% 30.06 in 10.0 mi SSW 23.0 mph 29.9 mph N/A   Clear
5:53 PM 45.0 °F 38.2 °F 39.0 °F 80% 30.06 in 10.0 mi South 15.0 mph - N/A   Mostly Cloudy
6:53 PM 45.0 °F 38.9 °F 39.0 °F 80% 30.08 in 10.0 mi South 12.7 mph - N/A   Overcast
7:53 PM 44.1 °F 37.4 °F 37.9 °F 79% 30.10 in 10.0 mi SSW 13.8 mph - N/A   Clear
8:53 PM 41.0 °F 36.4 °F 36.0 °F 82% 30.12 in 10.0 mi South 6.9 mph - N/A   Clear
9:53 PM 39.2 °F 35.9 °F 35.6 °F 87% 30.11 in 10.0 mi SSE 4.6 mph - N/A   Clear
10:53 PM 37.9 °F 34.4 °F 35.1 °F 89% 30.14 in 10.0 mi SSE 4.6 mph - N/A   Partly Cloudy
11:53 PM 39.9 °F 36.7 °F 36.0 °F 86% 30.14 in 10.0 mi SE 4.6 mph - N/A   Mostly Cloudy